Погода Назимово

Погода Назимово : погода сейчас, прогноз погоды и архив. Всё, что Вы хотите узнать о погоде Назимово!

Поиск расширенной информации на нашем сайте:

Полезная информация: Белая Береза водка vodka-zavod.ru

Другие новости

Новости СМИ2

Главная страница сайта

Новости сайта

02.10.2013

Напоминаем, что на нашем новом сайте вы можете получить высокодетализированные прогнозы погоды по пунктам России, СНГ и мира (включающие важные для авиации метеовеличины, такие как направление и скорость ветра, видимость, явления погоды, количество и форма облачности, нижняя и верхняя граница облачности), а также ознакомиться с разнообразными материалами по авиационной метеорологии и подборкой полезных ссылок на эту тему.

Сайт Метеоцентр.Азия посвящён разработке технологий оптимизации авиаметеорологического обслуживания, включая проектирование и перспективное создание нескольких автоматизированных авиаметеорологических систем:
- система выпуска высокодетальных прогностических карт явлений погоды для нижнего воздушного пространства по России и ближнему зарубежью;
- система верификации прогнозов TAF (выпускаемых синоптиками официальных АМСГ РФ и ближнего зарубежья) и AUTOTAF (выпускаемых сайтом Метеоцентр.Азия) - выявление ошибок, онлайн-сопоставление с фактической погодой METAR, автоматическое внесение коррективов в прогнозы при резком отклонении фактической погоды от прогноза, подсчёт оправдываемости прогнозов по элементам и в целом;
- система обработки, анализа и отображения авиаметеорологической информации для применения провайдерами метеорологической информации.

Рекомендуем: Модернизация спирального гидроциклона energomash74.ru.

Погода Назимово - сегодня

Время (UTC), дата Ветер
(°,м/с) 
Видим.   Явления Облачность Т
(°С)
Тd
(°С)
f(%) Тe
(°С)
Pmin
(гПа)
dP
(гПа)
Po
(мм)
O2
(г/м3)
Тmin Tmax R s Состояние
почвы
21 23.03.17 тихо ()   н/о    ясно 
-14.2 -17.7 75 -14  1031.9  0.4  767  328           
00 24.03.17 140 (ЮВ) н/о    9/0 верхняя 
[Ci fib]
-14.5 -16.5 85 -15  1032.4  0.5  768  328  -14.9      87  равномерный
мокрый или
старый снег
100% 
03 24.03.17 120 (ЮВ) 20000 м    10/0 верхняя 
[Cs]
-8.1 -12.2 72 -10  1032.8  0.6  768  320           
06 24.03.17 120 (ЮВ) 20000 м    9/0 верхняя 
[Ci fib]
+1 -7 55 -1  1031.8  -0.7  767  309           
09 24.03.17 120 (ЮВ) 20000 м    9/0 верхняя 
[Ci fib]
+5.2 -6.6 42 +4  1030.1  -1.6  766  304           
12 24.03.17 140 (ЮВ) 20000 м    8/0 верхняя 
[Ci fib]
+1.2 -7.6 52 +1  1029  -1.2  765  308    +6.1       
15 24.03.17 130 (ЮВ) н/о    ясно 
-4.4 -9.5 68 -6  1028.6  -0.6  765  314           
18 24.03.17 140 (ЮВ) н/о    ясно 
-11 -14.6 75 -13  1027.2  -1.6  764  322           
21 24.03.17 130 (ЮВ) н/о    ясно 
-9.3 -14.4 66 -11  1026.2  -1  763  320           
00 25.03.17 130 (ЮВ) 20000 м    3/3 2000 м средняя 
[As trans]
-10.2 -15.5 65 -12  1024.8  -1.4  762  320  -12.2      87  равномерный
мокрый или
старый снег
100% 
03 25.03.17 120 (ЮВ) 20000 м    4/0 верхняя 
[Ci fib]
-6.3 -11.3 68 -10  1022.9  -1.6  761  315  -12.3         
06 25.03.17 140 (ЮВ) 5-10{10}  20000 м    3/0 верхняя 
[Cs]
+4.9 -4.9 49 +3  1018.6  -4  758  300           
09 25.03.17 150 (ЮВ) 7-12{13}  20000 м    9/0 верхняя 
[Ci]
+8.6 -5.9 35 +6  1014.8  -3.6  755  296           
12 25.03.17 140 (ЮВ) 5{13}  20000 м    10/10 2000 м 
[Ac As]
+7.1 -5.1 41 +5  1012.6  -2.3  753  296    +9.6       
15 25.03.17 150 (ЮВ) н/о    10/10 2000 м 
[Ac As]
+6.1 -6.4 40 +5  1010.4  -2.2  752  297           
18 25.03.17 210 (ЮЗ) н/о  слаб. ливневой дождь  10/10 300 м кучево-дожд. 
[Cb cap]
+4.4 +2.2 86 +4  1010.3  -0.1  752  298           
21 25.03.17 210 (ЮЗ) н/о  слаб. ливневой дождь  10/10 300 м кучево-дожд. 
[Cb cap]
+2.2 +0.9 91 +2  1010.5  0.1  752  300           
00 26.03.17 280 (З) 5-10{11}  4000 м  слаб. ливневой дождь со снегом  10/10 300 м кучево-дожд. 
[Cb cap]
+1.5 +0.4 92 -1  1011.9  1.4  753  302  +1.5    84  равномерный
мокрый или
старый снег
100% 
03 26.03.17 280 (З) 3{13}  20000 м  {ливн. осадки}  10/10 600 м кучево-дожд. 
[Cb cap]
+0.3 -3.4 76 -1  1017.1  5.1  757  305           
06 26.03.17 270 (З) 20000 м  {ливн. осадки}  10/10 600 м кучево-дожд. 
[Cb cap]
+1.3 -3.5 70 -1  1018.9  1.8  758  304           
09 26.03.17 260 (З) 20000 м    9/9 600 м кучево-дожд. 
[Cb cap]
+3.1 -5.2 54 +1  1019.6  0.8  758  303           
12 26.03.17 240 (ЮЗ) 20000 м    10/1 2000 м средняя, верхняя 
[Ac lent|Cs]
+3.6 -7.4 44 +3  1019.5  -0.1  758  302    +8.1  0.0     
15 26.03.17 210 (ЮЗ) н/о    10/10 2000 м 
[Ac As]
+2.7 -6.6 50 +2  1019.5  758  303           
18 26.03.17 180 (Ю) н/о    4/4 2000 м средняя 
[Ac As]
+1 -5.8 60 1019.1  -0.5  758  305           
21 26.03.17 130 (ЮВ) н/о    9/3 2000 м средняя, верхняя 
[Ac As|Ci fib]
-1.5 -4.9 78 -2  1018.9  -0.2  758  308           
Время (UTC), дата Ветер
(°,м/с) 
Видим.   Явления Облачность Т
(°С)
Тd
(°С)
f(%) Тe
(°С)
Pmin
(гПа)
dP
(гПа)
Po
(мм)
O2
(г/м3)
Тmin Tmax R s Состояние
почвы

Для получения пояснительной информации подведите курсор к названию столбца.

ПОГОДА Назимово - архив

Всё, что Вы хотите узнать о погоде Назимово - удобно и подробно!

Выберите нужную дату (начиная с 1 января 2015* года) и нажмите кнопку "Найти".
Будут отображены архивные сводки погоды по пункту Назимово, начиная с указанной даты.


Отображать данные в формате CSV (для использования в таблицах Excel)


Внимание! Наш архив погоды предназначен исключительно для личного некоммерческого использования в познавательных целях. Если Вам необходимы официальные справки о состоянии погоды (для производственных, юридических, коммерческих и т.п. целей), обращайтесь в органы Росгидромета.

*Примечание: данная дата относится к архиву по метеостанциям СССР (Россия, СНГ, Балтия).
Архив по метеостанциям Зарубежной Европы и Азии (кроме Китая) хранится 10 дней, по другим регионам земного шара (Китай, Африка, Америка, Австралия, Океания) - 1 день.

Назимово - район местоположения метеостанции


Название, широта, долгота, высота метеостанции:
Назимово 59.5°ш. 91°д. 67 м над ур. моря [Российская Федерация]

Дополнительная информация

В oтличие oт бoльшинства пoгoдных сайтoв мы публикуем пoдрoбную метеoинфoрмацию в детальнoм прoфессиoнальнoм фoрмате.

Характеристики температуры и влажнoсти вoздуха измеряются на высoте 2 м в тени вдали oт зданий и деревьев.
Скoрoсть ветра измеряется на высoте 10 м (на урoвне рoста челoвека скoрoсть ветра ниже в 1.5-2 раза). Если метеoстанция нахoдится в гoрoде или в лесу, тo скoрoсть ветра занижена на 2-4 м/с пo сравнению с oткрытым местoм. Скoрoсть ветра над акватoриями крупных рек и oзёр, а также на вершинах хoлмoв на 2-5 м/с выше, чем в oбычных услoвиях.
Атмoсфернoе давление в разных тoчках местнoсти мoжет значительнo oтличаться oт давления на метеoстанции, в зависимoсти oт услoвий рельефа (при пoдъёме на 10 м давление пoнижается примернo на 1 мм рт.ст.).